sat.trackr.live / text

‹ back to catalog

STARLINK-3274

NORAD 50186 · 2021-125AG

PAYLOAD ACTIVE UNKNOWN

§ Identity

Operator
Country
US
Launch date
2021-12-18
Launch site
AFWTR
Launch vehicle
Mass (kg)
RCS (m²)

Purposes: comms

External: N2YO · Heavens-Above · Gunter

§ Orbital elements

Epoch: 2026-09-20T03:05:51.859680Z

Period
94.01 min
Inclination
53.1587°
Eccentricity
0.0001386
Mean motion
15.31712917 rev/d
Perigee alt
469.8 km
Apogee alt
471.7 km
Semi-major
6,848.8 km
B*
1.1450e-4
RAAN
92.5654°
Arg perigee
74.8557°
Mean anomaly
285.2598°
Rev number
26,599

§ Raw data

STARLINK-32741 50186U 21125AG  26263.12907245  .00003191  00000+0  11450-3 0  99972 50186  53.1587  92.5654 0001386  74.8557 285.2598 15.31712917265993

JSON: /api/v1/satellites/50186 · /tle

For live sub-satellite position, see the globe view (requires WebGL).

§ Visibility from observer

Set your observer location to see the next 7 days of passes ≥ 10°. The values pass through the URL so the page stays shareable.

No JS? Fill the form by hand. The geolocation button needs JavaScript.